FW9543 Weather Reports


Display with metric or nautical units.
time (UTC)temp
F
wind
direction
speed
MPH
gust
MPH
rain 1hr
in
rain 24hr
in
rain mn
in
humidity
%
barometer
mb
20260906210527 87 115 4.0 12.0 0.00 0.00 0.00 36 1015.9
20260906210026 87 150 5.0 12.0 0.00 0.00 0.00 36 1016.1
20260906205525 87 105 6.0 14.0 0.00 0.00 0.00 37 1016.0
20260906205025 87 130 10.0 14.0 0.00 0.00 0.00 36 1016.1
20260906204530 87 132 5.0 12.0 0.00 0.00 0.00 37 1016.2
20260906204024 87 117 5.0 12.0 0.00 0.00 0.00 37 1016.2
20260906203524 87 206 3.0 11.0 0.00 0.00 0.00 35 1016.3
20260906203024 87 128 2.0 12.0 0.00 0.00 0.00 35 1016.4
20260906202525 87 180 5.0 11.0 0.00 0.00 0.00 36 1016.4
20260906202024 87 240 5.0 11.0 0.00 0.00 0.00 36 1016.4
20260906201521 87 242 2.0 11.0 0.00 0.00 0.00 36 1016.4
20260906201020 87 190 4.0 11.0 0.00 0.00 0.00 37 1016.5
20260906200518 86 201 1.0 15.0 0.00 0.00 0.00 36 1016.5
20260906200033 86 200 7.0 15.0 0.00 0.00 0.00 36 1016.6
20260906195518 86 171 3.0 14.0 0.00 0.00 0.00 37 1016.6
20260906195017 86 140 6.0 14.0 0.00 0.00 0.00 38 1016.7
20260906194516 86 135 5.0 10.0 0.00 0.00 0.00 37 1016.7
20260906194019 86 173 4.0 15.0 0.00 0.00 0.00 39 1016.7
20260906193515 86 182 4.0 15.0 0.00 0.00 0.00 39 1016.8
20260906193015 86 223 3.0 14.0 0.00 0.00 0.00 38 1016.9
20260906192513 86 176 5.0 14.0 0.00 0.00 0.00 39 1016.9
20260906192013 86 182 2.0 11.0 0.00 0.00 0.00 39 1016.9
20260906191514 86 140 5.0 11.0 0.00 0.00 0.00 39 1017.0
20260906191010 85 190 5.0 14.0 0.00 0.00 0.00 40 1017.0
20260906190511 85 184 6.0 14.0 0.00 0.00 0.00 40 1017.0
20260906190010 85 203 7.0 14.0 0.00 0.00 0.00 41 1017.0
20260906185508 85 200 7.0 16.0 0.00 0.00 0.00 41 1017.1
20260906185007 84 201 5.0 11.0 0.00 0.00 0.00 42 1017.1
20260906184506 84 244 7.0 11.0 0.00 0.00 0.00 43 1017.2
20260906184005 84 203 7.0 11.0 0.00 0.00 0.00 43 1017.2
20260906183606 83 221 4.0 13.0 0.00 0.00 0.00 43 1017.2
20260906183002 83 190 6.0 15.0 0.00 0.00 0.00 44 1017.3
20260906182501 83 219 7.0 15.0 0.00 0.00 0.00 44 1017.6
20260906182002 83 217 9.0 13.0 0.00 0.00 0.00 44 1017.5
20260906181504 83 188 7.0 15.0 0.00 0.00 0.00 44 1017.6
20260906181059 83 200 5.0 17.0 0.00 0.00 0.00 45 1017.6
20260906180558 82 187 6.0 17.0 0.00 0.00 0.00 46 1017.6
20260906175557 82 227 5.0 13.0 0.00 0.00 0.00 46 1017.8
20260906175057 82 192 10.0 13.0 0.00 0.00 0.00 46 1017.9
20260906174558 82 191 8.0 12.0 0.00 0.00 0.00 46 1017.9
20260906174055 81 198 5.0 12.0 0.00 0.00 0.00 47 1018.0
20260906173554 81 236 6.0 12.0 0.00 0.00 0.00 47 1018.0
20260906173053 80 192 8.0 15.0 0.00 0.00 0.00 47 1018.1
20260906172551 80 186 6.0 15.0 0.00 0.00 0.00 49 1018.1
20260906172051 79 221 10.0 14.0 0.00 0.00 0.00 49 1018.2
20260906171605 79 217 10.0 15.0 0.00 0.00 0.00 50 1018.2
20260906171049 79 216 11.0 15.0 0.00 0.00 0.00 50 1018.3
20260906170549 79 211 11.0 16.0 0.00 0.00 0.00 50 1018.3
20260906170103 79 200 10.0 13.0 0.00 0.00 0.00 50 1018.4
20260906165552 78 216 10.0 17.0 0.00 0.00 0.00 50 1018.4
20260906165047 78 215 9.0 17.0 0.00 0.00 0.00 51 1018.5
20260906164547 78 199 11.0 18.0 0.00 0.00 0.00 51 1018.5
20260906164050 77 198 13.0 18.0 0.00 0.00 0.00 51 1018.5
20260906163546 78 218 13.0 16.0 0.00 0.00 0.00 51 1018.5
20260906163046 78 190 10.0 17.0 0.00 0.00 0.00 50 1018.5
20260906162545 77 219 8.0 17.0 0.00 0.00 0.00 50 1018.5
20260906162043 77 182 10.0 17.0 0.00 0.00 0.00 51 1018.6
20260906161542 76 215 12.0 18.0 0.00 0.00 0.00 50 1018.5
20260906161043 76 193 12.0 17.0 0.00 0.00 0.00 51 1018.5
20260906160540 76 196 11.0 17.0 0.00 0.00 0.00 50 1018.6
20260906160039 75 194 10.0 17.0 0.00 0.00 0.00 52 1018.6
20260906155540 75 202 11.0 17.0 0.00 0.00 0.00 52 1018.6
20260906155038 75 193 11.0 17.0 0.00 0.00 0.00 53 1018.7
20260906154542 74 206 11.0 15.0 0.00 0.00 0.00 54 1018.6
20260906154034 74 211 10.0 15.0 0.00 0.00 0.00 54 1018.6
20260906153535 73 198 9.0 17.0 0.00 0.00 0.00 55 1018.6
20260906153035 73 200 9.0 19.0 0.00 0.00 0.00 57 1018.5
20260906152533 72 207 10.0 19.0 0.00 0.00 0.00 58 1018.6
20260906152030 71 185 9.0 17.0 0.00 0.00 0.00 59 1018.6
20260906151529 71 202 12.0 19.0 0.00 0.00 0.00 59 1018.6
20260906151030 71 196 14.0 18.0 0.00 0.00 0.00 59 1018.6
20260906150527 71 215 13.0 18.0 0.00 0.00 0.00 60 1018.6
20260906150027 70 179 14.0 19.0 0.00 0.00 0.00 60 1018.6
20260906145525 70 219 14.0 19.0 0.00 0.00 0.00 61 1018.7
20260906145027 69 212 9.0 17.0 0.00 0.00 0.00 63 1018.7
20260906144524 69 188 11.0 17.0 0.00 0.00 0.00 64 1018.7
20260906144021 68 195 9.0 20.0 0.00 0.00 0.00 65 1018.7
20260906143520 68 205 9.0 20.0 0.00 0.00 0.00 66 1018.8
20260906143021 67 199 8.0 16.0 0.00 0.00 0.00 68 1018.8
20260906142518 66 205 11.0 18.0 0.00 0.00 0.00 68 1018.9
20260906142021 66 213 12.0 18.0 0.00 0.00 0.00 69 1019.0
20260906141519 66 195 12.0 17.0 0.00 0.00 0.00 70 1019.0
20260906141014 66 210 11.0 18.0 0.00 0.00 0.00 70 1019.0
20260906140513 65 211 10.0 17.0 0.00 0.00 0.00 71 1018.9
20260906140011 65 188 9.0 14.0 0.00 0.00 0.00 72 1018.9
20260906135511 65 180 8.0 14.0 0.00 0.00 0.00 73 1018.9
20260906135009 64 194 9.0 13.0 0.00 0.00 0.00 74 1018.9
20260906134511 64 207 8.0 15.0 0.00 0.00 0.00 75 1018.8
20260906134011 63 202 5.0 14.0 0.00 0.00 0.00 76 1018.8
20260906133506 63 196 9.0 14.0 0.00 0.00 0.00 77 1018.7
20260906133005 63 225 9.0 13.0 0.00 0.00 0.00 77 1018.7
20260906132505 62 190 8.0 13.0 0.00 0.00 0.00 79 1018.8
20260906132004 62 201 8.0 13.0 0.00 0.00 0.00 80 1018.7
20260906131510 61 202 9.0 13.0 0.00 0.00 0.00 81 1018.7
20260906131005 60 198 8.0 11.0 0.00 0.00 0.00 83 1018.8
20260906130504 60 199 7.0 10.0 0.00 0.00 0.00 83 1018.8
20260906130004 60 202 8.0 10.0 0.00 0.00 0.00 84 1018.7
20260906125504 60 213 7.0 11.0 0.00 0.00 0.00 84 1018.8
20260906125004 60 205 7.0 10.0 0.00 0.00 0.00 84 1018.7
20260906124504 60 209 7.0 10.0 0.00 0.00 0.00 85 1018.6
20260906124002 59 193 5.0 9.0 0.00 0.00 0.00 85 1018.5
20260906123501 59 185 5.0 8.0 0.00 0.00 0.00 85 1018.5
20260906123002 59 180 4.0 9.0 0.00 0.00 0.00 85 1018.6
20260906122502 59 205 6.0 9.0 0.00 0.00 0.00 84 1018.7
20260906122002 59 207 6.0 10.0 0.00 0.00 0.00 84 1018.6
20260906121500 60 219 6.0 10.0 0.00 0.00 0.00 83 1018.5
20260906121103 60 201 7.0 11.0 0.00 0.00 0.00 83 1018.5
20260906120601 60 207 9.0 13.0 0.00 0.00 0.00 83 1018.5
20260906120059 60 202 9.0 14.0 0.00 0.00 0.00 83 1018.5
20260906115559 60 215 8.0 12.0 0.00 0.00 0.00 84 1018.5
20260906115503 60 219 8.0 12.0 0.00 0.00 0.00 84 1018.5
20260906115058 60 207 9.0 12.0 0.00 0.00 0.00 84 1018.4
20260906114601 60 210 9.0 12.0 0.00 0.00 0.00 85 1018.5
20260906114058 59 219 7.0 11.0 0.00 0.00 0.00 86 1018.5
20260906113559 59 205 7.0 11.0 0.00 0.00 0.00 86 1018.5
20260906113058 59 211 8.0 12.0 0.00 0.00 0.00 86 1018.5
20260906112558 59 209 8.0 11.0 0.00 0.00 0.00 86 1018.4
20260906112058 59 203 8.0 10.0 0.00 0.00 0.00 87 1018.4
20260906111600 59 205 5.0 11.0 0.00 0.00 0.00 87 1018.4
20260906111056 59 200 8.0 11.0 0.00 0.00 0.00 87 1018.5
20260906110557 59 202 7.0 11.0 0.00 0.00 0.00 87 1018.6
20260906110058 59 186 6.0 11.0 0.00 0.00 0.00 87 1018.5
20260906105555 59 206 5.0 9.0 0.00 0.00 0.00 87 1018.5
20260906105056 59 187 5.0 10.0 0.00 0.00 0.00 87 1018.6
20260906104602 59 200 6.0 9.0 0.00 0.00 0.00 86 1018.5
20260906104057 59 192 6.0 9.0 0.00 0.00 0.00 86 1018.3
20260906103556 60 193 5.0 9.0 0.00 0.00 0.00 86 1018.4
20260906103055 60 201 6.0 10.0 0.00 0.00 0.00 85 1018.4
20260906102554 60 205 5.0 9.0 0.00 0.00 0.00 85 1018.2
20260906102054 60 196 4.0 10.0 0.00 0.00 0.00 86 1018.1
20260906101556 60 200 5.0 10.0 0.00 0.00 0.00 86 1018.2
20260906101055 59 186 5.0 10.0 0.00 0.00 0.00 87 1018.2
20260906100555 59 202 7.0 10.0 0.00 0.00 0.00 89 1018.2
20260906100054 58 206 6.0 9.0 0.00 0.00 0.00 89 1018.0
20260906095555 58 207 5.0 7.0 0.00 0.00 0.00 88 1017.9
20260906095051 58 201 4.0 6.0 0.00 0.00 0.00 87 1018.0
20260906094602 59 194 2.0 8.0 0.00 0.00 0.00 87 1018.0
20260906094048 59 201 6.0 8.0 0.00 0.00 0.00 87 1018.0
20260906093549 59 215 6.0 8.0 0.00 0.00 0.00 87 1018.1
20260906093115 59 211 5.0 10.0 0.00 0.00 0.00 86 1018.1
20260906092547 59 205 6.0 10.0 0.00 0.00 0.00 87 1017.9
20260906092047 59 211 7.0 11.0 0.00 0.00 0.00 87 1017.9
20260906091547 59 207 7.0 10.0 0.00 0.00 0.00 87 1017.9
20260906091048 59 211 7.0 11.0 0.00 0.00 0.00 87 1017.9
20260906090545 59 217 8.0 14.0 0.00 0.00 0.00 86 1017.9
20260906090045 59 220 8.0 11.0 0.00 0.00 0.00 87 1018.0
20260906085544 59 222 8.0 12.0 0.00 0.00 0.00 86 1017.9
20260906085045 60 202 8.0 12.0 0.00 0.00 0.00 86 1017.9
20260906084544 60 212 9.0 12.0 0.00 0.00 0.00 85 1018.0
20260906084043 60 216 10.0 16.0 0.00 0.00 0.00 85 1018.0
20260906083543 60 229 11.0 17.0 0.00 0.00 0.00 84 1017.9
20260906083048 61 220 11.0 17.0 0.00 0.00 0.00 84 1017.9
20260906082542 60 217 11.0 15.0 0.00 0.00 0.00 85 1017.9
20260906082042 60 217 10.0 13.0 0.00 0.00 0.00 85 1018.0
20260906081541 60 208 10.0 14.0 0.00 0.00 0.00 85 1018.2
20260906081040 60 215 9.0 16.0 0.00 0.00 0.00 84 1018.2
20260906080540 60 221 10.0 16.0 0.00 0.00 0.00 84 1018.1
20260906080041 60 214 10.0 14.0 0.00 0.00 0.00 84 1018.1
20260906075538 60 217 9.0 15.0 0.00 0.00 0.00 84 1018.2
20260906075037 60 217 11.0 15.0 0.00 0.00 0.00 84 1018.3
20260906074537 60 217 10.0 13.0 0.00 0.00 0.00 83 1018.3
20260906074035 60 215 10.0 13.0 0.00 0.00 0.00 83 1018.3
20260906073539 61 217 9.0 14.0 0.00 0.00 0.00 82 1018.3
20260906073033 61 221 9.0 14.0 0.00 0.00 0.00 81 1018.3
20260906072533 62 211 9.0 14.0 0.00 0.00 0.00 81 1018.2
20260906072033 62 218 10.0 14.0 0.00 0.00 0.00 80 1018.2
20260906071531 63 209 10.0 17.0 0.00 0.00 0.00 78 1018.4
20260906071031 63 202 11.0 17.0 0.00 0.00 0.00 78 1018.3
20260906070528 63 199 10.0 18.0 0.00 0.00 0.00 80 1018.4
20260906070028 62 203 11.0 15.0 0.00 0.00 0.00 81 1018.4
20260906065529 62 196 8.0 16.0 0.00 0.00 0.00 81 1018.5
20260906065027 62 207 9.0 13.0 0.00 0.00 0.00 81 1018.6
20260906064525 62 203 6.0 11.0 0.00 0.00 0.00 81 1018.4
20260906064025 62 215 7.0 14.0 0.00 0.00 0.00 81 1018.3
20260906063524 62 188 7.0 14.0 0.00 0.00 0.00 82 1018.3
20260906063023 62 183 7.0 11.0 0.00 0.00 0.00 83 1018.4
20260906062523 61 191 6.0 10.0 0.00 0.00 0.00 83 1018.3
20260906062020 62 189 6.0 10.0 0.00 0.00 0.00 82 1018.2
20260906061522 62 181 6.0 9.0 0.00 0.00 0.00 82 1018.1
20260906061017 62 183 6.0 9.0 0.00 0.00 0.00 81 1018.1
20260906060519 62 179 5.0 9.0 0.00 0.00 0.00 81 1018.0
20260906060015 62 193 6.0 10.0 0.00 0.00 0.00 81 1018.0
20260906055514 63 180 5.0 11.0 0.00 0.00 0.00 81 1018.1
20260906055014 62 196 6.0 11.0 0.00 0.00 0.00 81 1018.1
20260906054514 62 206 6.0 11.0 0.00 0.00 0.00 80 1018.0
20260906054016 63 190 7.0 11.0 0.00 0.00 0.00 80 1018.2
20260906053512 63 205 6.0 11.0 0.00 0.00 0.00 80 1018.2
20260906053011 63 202 8.0 12.0 0.00 0.00 0.00 79 1018.4
20260906052512 63 198 6.0 11.0 0.00 0.00 0.00 79 1018.2
20260906052111 63 151 5.0 11.0 0.00 0.00 0.00 79 1018.2
20260906051510 63 212 7.0 13.0 0.00 0.00 0.00 77 1018.2
20260906051009 64 202 6.0 13.0 0.00 0.00 0.00 77 1018.2
20260906050508 63 181 8.0 11.0 0.00 0.00 0.00 78 1018.3
20260906050006 63 222 6.0 10.0 0.00 0.00 0.00 78 1018.3
20260906045508 63 204 2.0 5.0 0.00 0.00 0.00 76 1018.4
20260906045004 64 194 2.0 6.0 0.00 0.00 0.00 76 1018.3
20260906044504 64 184 3.0 7.0 0.00 0.00 0.00 75 1018.4
20260906044003 65 165 2.0 9.0 0.00 0.00 0.00 75 1018.3
20260906043504 65 173 4.0 9.0 0.00 0.00 0.00 75 1018.4
20260906043003 65 198 4.0 12.0 0.00 0.00 0.00 74 1018.4
20260906042502 66 173 4.0 12.0 0.00 0.00 0.00 74 1018.4
20260906042002 66 150 3.0 9.0 0.00 0.00 0.00 73 1018.4
20260906041502 66 139 2.0 9.0 0.00 0.00 0.00 72 1018.4
20260906041001 67 138 4.0 12.0 0.00 0.00 0.00 72 1018.4
20260906040501 67 188 5.0 15.0 0.00 0.00 0.00 71 1018.4
20260906040003 67 162 5.0 15.0 0.00 0.00 0.00 71 1018.4
20260906035601 68 195 7.0 12.0 0.00 0.00 0.00 71 1018.4
20260906035100 68 178 5.0 13.0 0.00 0.00 0.00 71 1018.4
20260906034605 68 153 7.0 17.0 0.00 0.00 0.00 72 1018.3
20260906034100 67 207 6.0 11.0 0.00 0.00 0.00 73 1018.4
20260906034003 67 160 6.0 13.0 0.00 0.00 0.00 73 1018.3
20260906033600 67 182 5.0 15.0 0.00 0.00 0.00 73 1018.3
20260906033100 68 198 7.0 14.0 0.00 0.00 0.00 73 1018.3
20260906032559 68 150 8.0 14.0 0.00 0.00 0.00 71 1018.3
20260906032059 68 189 8.0 12.0 0.00 0.00 0.00 70 1018.3
20260906031558 68 204 6.0 13.0 0.00 0.00 0.00 69 1018.2
20260906031057 68 195 4.0 12.0 0.00 0.00 0.00 67 1018.2
20260906030557 68 186 5.0 12.0 0.00 0.00 0.00 66 1018.3
20260906025556 69 163 5.0 10.0 0.00 0.00 0.00 64 1018.3
20260906025056 70 192 4.0 9.0 0.00 0.00 0.00 63 1018.2
20260906024600 70 134 2.0 10.0 0.00 0.00 0.00 62 1018.1
20260906024056 70 192 4.0 10.0 0.00 0.00 0.00 62 1018.2
20260906023558 70 160 2.0 7.0 0.00 0.00 0.00 62 1018.1
20260906023056 70 143 1.0 11.0 0.00 0.00 0.00 63 1018.1
20260906022555 69 184 4.0 11.0 0.00 0.00 0.00 64 1018.0
20260906022054 69 118 4.0 7.0 0.00 0.00 0.00 64 1018.0
20260906021555 70 131 3.0 5.0 0.00 0.00 0.00 63 1018.1
20260906021054 70 126 2.0 7.0 0.00 0.00 0.00 62 1017.9
20260906020553 71 140 1.0 7.0 0.00 0.00 0.00 62 1017.8
20260906020053 71 123 2.0 6.0 0.00 0.00 0.00 61 1017.8
20260906015551 71 181 2.0 8.0 0.00 0.00 0.00 60 1017.8
20260906015052 72 163 3.0 8.0 0.00 0.00 0.00 60 1017.7
20260906014632 72 184 3.0 8.0 0.00 0.00 0.00 59 1017.6
20260906014052 73 175 3.0 8.0 0.00 0.00 0.00 58 1017.6
20260906013552 73 171 2.0 6.0 0.00 0.00 0.00 58 1017.4
20260906013058 74 163 2.0 7.0 0.00 0.00 0.00 59 1017.6
20260906012551 75 126 2.0 10.0 0.00 0.00 0.00 60 1017.6
20260906012051 76 160 2.0 11.0 0.00 0.00 0.00 59 1017.5
20260906011552 77 128 8.0 11.0 0.00 0.00 0.00 57 1017.5
20260906011049 78 128 7.0 10.0 0.00 0.00 0.00 54 1017.6
20260906010549 78 124 4.0 9.0 0.00 0.00 0.00 48 1017.7
20260906010052 79 122 5.0 11.0 0.00 0.00 0.00 46 1017.7
20260906005548 80 136 6.0 13.0 0.00 0.00 0.00 45 1017.7
20260906005048 80 109 7.0 13.0 0.00 0.00 0.00 44 1017.6
20260906004549 80 134 4.0 8.0 0.00 0.00 0.00 43 1017.6
20260906004048 80 95 2.0 7.0 0.00 0.00 0.00 43 1017.5
20260906003548 80 81 2.0 8.0 0.00 0.00 0.00 43 1017.5
20260906003050 80 79 2.0 9.0 0.00 0.00 0.00 42 1017.5
20260906002547 80 78 5.0 12.0 0.00 0.00 0.00 41 1017.4
20260906002047 81 72 6.0 12.0 0.00 0.00 0.00 40 1017.4
20260906001548 81 65 4.0 11.0 0.00 0.00 0.00 40 1017.5
20260906001047 81 65 5.0 11.0 0.00 0.00 0.00 39 1017.4
20260906000549 82 66 5.0 13.0 0.00 0.00 0.00 38 1017.4
20260906000046 82 71 8.0 18.0 0.00 0.00 0.00 37 1017.4
20260905235545 82 71 6.0 18.0 0.00 0.00 0.00 38 1017.4
20260905235047 82 82 9.0 16.0 0.00 0.00 0.00 38 1017.5
20260905234545 82 77 9.0 16.0 0.00 0.00 0.00 36 1017.6
20260905234045 83 76 10.0 16.0 0.00 0.00 0.00 38 1017.5
20260905233545 83 95 7.0 15.0 0.00 0.00 0.00 37 1017.5
20260905233047 83 76 7.0 17.0 0.00 0.00 0.00 38 1017.5
20260905232545 82 80 9.0 18.0 0.00 0.00 0.00 38 1017.5
20260905232044 82 71 11.0 19.0 0.00 0.00 0.00 38 1017.5
20260905231545 83 68 13.0 19.0 0.00 0.00 0.00 36 1017.4
20260905231044 85 76 14.0 19.0 0.00 0.00 0.00 35 1017.4
20260905230544 86 93 11.0 15.0 0.00 0.00 0.00 32 1017.3
20260905230043 87 65 7.0 14.0 0.00 0.00 0.00 25 1017.3
20260905225544 87 88 6.0 13.0 0.00 0.00 0.00 25 1017.3
20260905225043 87 75 6.0 14.0 0.00 0.00 0.00 25 1017.4
20260905224543 87 75 7.0 11.0 0.00 0.00 0.00 25 1017.4
20260905224043 87 67 4.0 12.0 0.00 0.00 0.00 25 1017.5
20260905223542 87 40 6.0 12.0 0.00 0.00 0.00 25 1017.5
20260905223043 87 90 8.0 12.0 0.00 0.00 0.00 25 1017.5
20260905222543 87 45 4.0 8.0 0.00 0.00 0.00 26 1017.5
20260905222044 87 27 3.0 11.0 0.00 0.00 0.00 25 1017.5
20260905221604 88 51 4.0 11.0 0.00 0.00 0.00 24 1017.6
20260905221041 88 56 5.0 11.0 0.00 0.00 0.00 25 1017.6
20260905220540 88 56 2.0 10.0 0.00 0.00 0.00 24 1017.5
20260905220040 88 28 4.0 13.0 0.00 0.00 0.00 25 1017.5
20260905215542 88 15 6.0 13.0 0.00 0.00 0.00 25 1017.4
20260905215039 87 46 4.0 12.0 0.00 0.00 0.00 25 1017.3
20260905214540 88 301 4.0 10.0 0.00 0.00 0.00 25 1017.3
20260905214039 87 59 4.0 11.0 0.00 0.00 0.00 25 1017.3
20260905213539 88 107 7.0 11.0 0.00 0.00 0.00 24 1017.3
20260905213055 88 58 4.0 11.0 0.00 0.00 0.00 25 1017.3
20260905212538 88 17 3.0 11.0 0.00 0.00 0.00 25 1017.3
20260905212038 88 64 6.0 11.0 0.00 0.00 0.00 25 1017.4
20260905211543 87 15 5.0 13.0 0.00 0.00 0.00 26 1017.5
20260905211037 87 32 3.0 13.0 0.00 0.00 0.00 26 1017.5